星链-5141 (STARLINK-5141 )

导读 | 星芒AI

STARLINK-5141 是 SpaceX Starlink 项目中的一颗低轨通信卫星,属于第51批发射的星链卫星群。该卫星于2023年发射,部署在约550公里高的近地轨道,旨在为全球用户提供高速互联网服务。它采用先进推进系统和激光通信技术,具备高带宽和低延迟特性,支持偏远地区网络接入。作为星链星座的一部分,STARLINK-5141 有助于增强全球卫星互联网覆盖,推动数字基础设施建设。

基本信息
目录编号:
55500
目录名称:
STARLINK-5141
国际标识:
2023-015BD
轨道中心:
EARTH
卫星名称:
星链-5141
卫星全名:
星链-5141 (STARLINK-5141 )
卫星状态:
在轨 (已飞行1053 天)
发射日期:
2023-02-02 UTC
国别 :
美国 (US)
星等 :
--
轨道信息
数据来源 国际轨道数据
星历时间: 2025-12-21T11:35:00+0800
7小时前
查看轨道信息
半长轴: 6937.233km
偏心率: 0.0001351
轨道倾角: 43.005°
近地点辐角 266.381°
升交点赤经 45.384°
平近点角 93.688°
近地点: 558.158km
远地点: 560.034km
周期: 95.838分钟
每日圈数: 15.025308
详细信息
固有亮度:
5
最大亮度:
2.5
卫星平台:
Starlink v1.5
覆盖范围:
全球
运营商:
太空探索技术公司
运营商所在国:
美国
制造商(研发单位):
太空探索技术公司
制造商所在国:
美国
使用方式:
暂无
卫星简介
星链(Starlink)计划是由太空探索技术公司(SpaceX)提出的一个巨型低轨卫星互联网星座项目,计划在2019年至2024年间在太空搭建由约1.2万颗卫星组成的“星链”网络,其中1584颗将部署在地球上空550千米处的近地轨道,并从2020年开始工作。该卫星仍在工作。
2D轨道图
3D轨道图
轨道高度分析图
轨道倾角分析图
轨道综合分析图
查看轨道综合分析图